When you browse on this site, cookies collect data to enhance your experience and personalize the content and advertising you see.
Visit our Privacy Policy to learn more. By continuing to use the site, you agree to this use of cookies and data.
  • In Österreich
  • Länderverzeichnis
  • Für 7 Tage
  • Wassertemperatur
  • Satellitenkarten
  • Wetterkarte
  • News
  • Widgets
  • user-avatar
    Anmelden

    Stündliche Wetter Koimbra

    Heute, 21 Mai, Dienstag

    Zeit Temperatur Niederschläge Wind Luftdruck Luftfeuchtigkeit
    00:00 +12°C° 0 mm 1 m/S 754 mmHg 89%
    01:00 +12°C° 0 mm 1 m/S 754 mmHg 89%
    02:00 +12°C° 0 mm 1 m/S 754 mmHg 88%
    03:00 +12°C° 0 mm 1 m/S 754 mmHg 87%
    04:00 +12°C° 0 mm 1 m/S 754 mmHg 85%
    05:00 +13°C° 0 mm 1 m/S 754 mmHg 83%
    06:00 +16°C° 0 mm 1 m/S 754 mmHg 75%
    07:00 +18°C° 0 mm 0 m/S 754 mmHg 67%
    08:00 +21°C° 0 mm 0 m/S 754 mmHg 58%
    09:00 +24°C° 0 mm 1 m/S 754 mmHg 54%
    10:00 +25°C° 0 mm 1 m/S 754 mmHg 49%
    11:00 +27°C° 0 mm 2 m/S 754 mmHg 45%
    12:00 +26°C° 0 mm 2 m/S 754 mmHg 47%
    13:00 +26°C° 0 mm 3 m/S 754 mmHg 49%
    14:00 +25°C° 0 mm 3 m/S 754 mmHg 52%
    15:00 +24°C° 0 mm 3 m/S 754 mmHg 56%
    16:00 +22°C° 0 mm 3 m/S 754 mmHg 60%
    17:00 +21°C° 0 mm 3 m/S 754 mmHg 64%
    18:00 +19°C° 0 mm 2 m/S 754 mmHg 72%
    19:00 +17°C° 0 mm 2 m/S 754 mmHg 81%
    20:00 +15°C° 0 mm 1 m/S 755 mmHg 89%
    21:00 +15°C° 0 mm 1 m/S 755 mmHg 90%
    22:00 +13°C° 0 mm 0 m/S 755 mmHg 91%
    23:00 +13°C° 0 mm 0 m/S 755 mmHg 92%

    Morgen, 22 Mai, Mittwoch

    Zeit Temperatur Niederschläge Wind Luftdruck Luftfeuchtigkeit
    00:00 +13°C° 0 mm 0 m/S 755 mmHg 92%
    01:00 +13°C° 0 mm 0 m/S 755 mmHg 92%
    02:00 +12°C° 0 mm 0 m/S 755 mmHg 92%
    03:00 +13°C° 0 mm 0 m/S 755 mmHg 91%
    04:00 +13°C° 0 mm 0 m/S 755 mmHg 90%
    05:00 +13°C° 0 mm 0 m/S 755 mmHg 89%
    06:00 +16°C° 0 mm 0 m/S 755 mmHg 78%
    07:00 +21°C° 0 mm 1 m/S 756 mmHg 68%
    08:00 +23°C° 0 mm 1 m/S 756 mmHg 57%
    09:00 +24°C° 0 mm 2 m/S 756 mmHg 54%
    10:00 +25°C° 0 mm 2 m/S 756 mmHg 50%
    11:00 +26°C° 0 mm 3 m/S 756 mmHg 47%
    12:00 +26°C° 0 mm 4 m/S 756 mmHg 48%
    13:00 +26°C° 0 mm 4 m/S 755 mmHg 49%
    14:00 +26°C° 0 mm 5 m/S 755 mmHg 49%
    15:00 +23°C° 0 mm 4 m/S 755 mmHg 53%
    16:00 +22°C° 0 mm 4 m/S 755 mmHg 56%
    17:00 +21°C° 0 mm 3 m/S 755 mmHg 60%
    18:00 +19°C° 0 mm 3 m/S 756 mmHg 69%
    19:00 +17°C° 0 mm 2 m/S 756 mmHg 77%
    20:00 +15°C° 0 mm 1 m/S 757 mmHg 86%
    21:00 +14°C° 0 mm 1 m/S 757 mmHg 88%
    22:00 +14°C° 0 mm 1 m/S 757 mmHg 90%
    23:00 +13°C° 0 mm 1 m/S 757 mmHg 93%

    übermorgen, 23 Mai, Donnerstag

    Zeit Temperatur Niederschläge Wind Luftdruck Luftfeuchtigkeit
    00:00 +13°C° 0 mm 1 m/S 757 mmHg 93%
    01:00 +13°C° 0 mm 1 m/S 757 mmHg 93%
    02:00 +13°C° 0 mm 1 m/S 756 mmHg 94%
    03:00 +13°C° 0 mm 1 m/S 756 mmHg 93%
    04:00 +13°C° 0 mm 1 m/S 756 mmHg 92%
    05:00 +13°C° 0 mm 1 m/S 756 mmHg 91%
    06:00 +16°C° 0 mm 1 m/S 757 mmHg 80%
    07:00 +18°C° 0 mm 2 m/S 757 mmHg 69%
    08:00 +21°C° 0 mm 2 m/S 757 mmHg 57%
    09:00 +22°C° 0 mm 3 m/S 757 mmHg 55%
    10:00 +24°C° 0 mm 3 m/S 757 mmHg 52%
    11:00 +25°C° 0 mm 4 m/S 757 mmHg 49%
    12:00 +25°C° 0 mm 4 m/S 757 mmHg 52%
    13:00 +25°C° 0 mm 5 m/S 756 mmHg 56%
    14:00 +25°C° 0 mm 5 m/S 756 mmHg 59%
    15:00 +22°C° 0 mm 5 m/S 756 mmHg 61%
    16:00 +21°C° 0 mm 5 m/S 756 mmHg 62%
    17:00 +20°C° 0 mm 4 m/S 756 mmHg 63%
    18:00 +18°C° 0 mm 4 m/S 756 mmHg 69%
    19:00 +16°C° 0 mm 3 m/S 756 mmHg 74%
    20:00 +14°C° 0 mm 3 m/S 757 mmHg 80%
    21:00 +14°C° 0 mm 2 m/S 757 mmHg 82%
    22:00 +14°C° 0 mm 2 m/S 757 mmHg 84%
    23:00 +13°C° 0 mm 1 m/S 757 mmHg 87%

    24 Mai, Freitag

    Zeit Temperatur Niederschläge Wind Luftdruck Luftfeuchtigkeit
    00:00 +13°C° 0 mm 1 m/S 756 mmHg 88%
    01:00 +13°C° 0 mm 1 m/S 756 mmHg 89%
    02:00 +13°C° 0 mm 1 m/S 756 mmHg 89%
    03:00 +13°C° 0 mm 1 m/S 756 mmHg 89%
    04:00 +13°C° 0 mm 1 m/S 755 mmHg 88%
    05:00 +13°C° 0 mm 1 m/S 755 mmHg 87%
    06:00 +16°C° 0 mm 2 m/S 755 mmHg 75%
    07:00 +18°C° 0 mm 3 m/S 756 mmHg 62%
    08:00 +21°C° 0 mm 3 m/S 756 mmHg 50%
    09:00 +22°C° 0 mm 3 m/S 756 mmHg 44%
    10:00 +25°C° 0 mm 4 m/S 755 mmHg 38%
    11:00 +27°C° 0 mm 4 m/S 755 mmHg 32%
    12:00 +27°C° 0 mm 4 m/S 755 mmHg 31%
    13:00 +28°C° 0 mm 5 m/S 754 mmHg 30%
    14:00 +28°C° 0 mm 5 m/S 754 mmHg 29%
    15:00 +27°C° 0 mm 5 m/S 753 mmHg 34%
    16:00 +26°C° 0 mm 5 m/S 753 mmHg 38%
    17:00 +23°C° 0 mm 5 m/S 753 mmHg 43%
    18:00 +21°C° 0 mm 4 m/S 754 mmHg 50%
    19:00 +19°C° 0 mm 3 m/S 754 mmHg 57%
    20:00 +17°C° 0 mm 2 m/S 754 mmHg 65%
    21:00 +17°C° 0 mm 2 m/S 755 mmHg 64%
    22:00 +16°C° 0 mm 2 m/S 755 mmHg 64%
    23:00 +16°C° 0 mm 2 m/S 755 mmHg 64%

    25 Mai, Samstag

    Zeit Temperatur Niederschläge Wind Luftdruck Luftfeuchtigkeit
    00:00 +16°C° 0 mm 2 m/S 755 mmHg 63%
    01:00 +16°C° 0 mm 3 m/S 755 mmHg 62%
    02:00 +16°C° 0 mm 3 m/S 755 mmHg 62%
    03:00 +16°C° 0 mm 3 m/S 755 mmHg 64%
    04:00 +16°C° 0 mm 3 m/S 755 mmHg 66%
    05:00 +15°C° 0 mm 2 m/S 756 mmHg 68%
    06:00 +18°C° 0 mm 3 m/S 756 mmHg 59%
    07:00 +20°C° 0 mm 3 m/S 756 mmHg 51%
    08:00 +22°C° 0 mm 3 m/S 756 mmHg 43%
    09:00 +25°C° 0 mm 4 m/S 756 mmHg 39%
    10:00 +26°C° 0 mm 4 m/S 755 mmHg 35%
    11:00 +28°C° 0 mm 4 m/S 755 mmHg 31%
    12:00 +28°C° 0 mm 4 m/S 755 mmHg 31%
    13:00 +28°C° 0 mm 4 m/S 754 mmHg 31%
    14:00 +29°C° 0 mm 4 m/S 754 mmHg 31%
    15:00 +28°C° 0 mm 4 m/S 754 mmHg 33%
    16:00 +27°C° 0 mm 4 m/S 754 mmHg 35%
    17:00 +27°C° 0 mm 4 m/S 754 mmHg 37%
    18:00 +25°C° 0 mm 4 m/S 755 mmHg 42%
    19:00 +22°C° 0 mm 3 m/S 755 mmHg 46%
    20:00 +20°C° 0 mm 2 m/S 756 mmHg 51%
    21:00 +19°C° 0 mm 2 m/S 756 mmHg 53%
    22:00 +18°C° 0 mm 2 m/S 756 mmHg 55%
    23:00 +17°C° 0 mm 2 m/S 757 mmHg 58%

    26 Mai, Sonntag

    Zeit Temperatur Niederschläge Wind Luftdruck Luftfeuchtigkeit
    00:00 +17°C° 0 mm 3 m/S 757 mmHg 59%
    01:00 +16°C° 0 mm 3 m/S 757 mmHg 60%
    02:00 +16°C° 0 mm 3 m/S 757 mmHg 61%
    03:00 +16°C° 0 mm 3 m/S 757 mmHg 62%
    04:00 +14°C° 0 mm 3 m/S 757 mmHg 63%
    05:00 +14°C° 0 mm 3 m/S 757 mmHg 64%
    06:00 +18°C° 0 mm 3 m/S 757 mmHg 57%
    07:00 +20°C° 0 mm 3 m/S 757 mmHg 50%
    08:00 +24°C° 0 mm 3 m/S 757 mmHg 43%
    09:00 +25°C° 0 mm 3 m/S 757 mmHg 40%
    10:00 +27°C° 0 mm 3 m/S 757 mmHg 36%
    11:00 +29°C° 0 mm 3 m/S 757 mmHg 32%
    12:00 +29°C° 0 mm 3 m/S 756 mmHg 31%
    13:00 +30°C° 0 mm 4 m/S 756 mmHg 31%
    14:00 +30°C° 0 mm 4 m/S 756 mmHg 30%
    15:00 +29°C° 0 mm 4 m/S 755 mmHg 32%
    16:00 +28°C° 0 mm 4 m/S 755 mmHg 35%
    17:00 +27°C° 0 mm 4 m/S 755 mmHg 38%
    18:00 +25°C° 0 mm 3 m/S 755 mmHg 45%
    19:00 +23°C° 0 mm 2 m/S 755 mmHg 52%
    20:00 +19°C° 0 mm 2 m/S 755 mmHg 59%
    21:00 +19°C° 0 mm 2 m/S 755 mmHg 60%
    22:00 +19°C° 0 mm 1 m/S 755 mmHg 60%
    23:00 +19°C° 0 mm 1 m/S 755 mmHg 60%
    Mehr zeigen